Tracking 20241 objects as of 25-Jan-2020
HD Live streaming from Space Station
objects crossing your sky now

DIAMOND RED

Track DIAMOND RED now!
10-day predictions


NORAD ID: 42783
Int'l Code: 2017-036U
Perigee: 496.7 km
Apogee: 513.8 km
Inclination: 97.3 °
Period: 94.6 minutes
Semi major axis: 6876 km
RCS: Unknown
Launch date: June 23, 2017
Source: Australia (AUS)
Launch site: SRIHARIKOTA (SRI)
aabbcc
Your satellite tracking list
Your tracking list is empty




NASA's NSSDC Master Catalog

Two Line Element Set (TLE):
1 42783U 17036U   20024.84151761  .00000702  00000-0  33162-4 0  9990
2 42783  97.3227  82.2341 0012377 169.5263 190.6234 15.22562087143740
Source of the keplerian elements: AFSPC